TimePDT,TemperatureF,Dew PointF,Humidity,Sea Level PressureIn,VisibilityMPH,Wind Direction,Wind SpeedMPH,Gust SpeedMPH,PrecipitationIn,Events,Conditions,WindDirDegrees,DateUTC
12:55 AM,53.1,37.0,55,29.91,10.0,Calm,Calm,-,N/A,,Clear,0,2013-06-02 07:55:00
1:55 AM,50.0,39.0,66,29.90,10.0,Calm,Calm,-,N/A,,Clear,0,2013-06-02 08:55:00
2:55 AM,46.0,37.9,73,29.90,10.0,Calm,Calm,-,N/A,,Clear,0,2013-06-02 09:55:00
3:55 AM,43.0,37.0,80,29.90,10.0,ESE,3.5,-,N/A,,Clear,110,2013-06-02 10:55:00
4:55 AM,44.1,39.0,82,29.90,10.0,ESE,3.5,-,N/A,,Clear,120,2013-06-02 11:55:00
5:55 AM,39.9,37.0,89,29.91,10.0,Calm,Calm,-,N/A,,Clear,0,2013-06-02 12:55:00
6:55 AM,50.0,39.9,68,29.89,10.0,Calm,Calm,-,N/A,,Clear,0,2013-06-02 13:55:00
7:55 AM,55.0,42.1,62,29.89,10.0,Calm,Calm,-,N/A,,Clear,0,2013-06-02 14:55:00
8:55 AM,59.0,42.1,53,29.88,10.0,Variable,3.5,-,N/A,,Clear,0,2013-06-02 15:55:00
9:55 AM,64.0,43.0,46,29.86,10.0,Calm,Calm,-,N/A,,Clear,0,2013-06-02 16:55:00
10:55 AM,66.9,43.0,42,29.85,10.0,Variable,5.8,-,N/A,,Clear,0,2013-06-02 17:55:00
11:55 AM,69.1,41.0,36,29.84,10.0,Calm,Calm,-,N/A,,Clear,0,2013-06-02 18:55:00
12:55 PM,73.9,37.9,27,29.82,10.0,West,9.2,-,N/A,,Clear,280,2013-06-02 19:55:00
1:55 PM,75.9,33.1,21,29.81,10.0,NW,11.5,16.1,N/A,,Clear,310,2013-06-02 20:55:00
2:55 PM,77.0,26.1,15,29.81,10.0,Variable,5.8,-,N/A,,Clear,0,2013-06-02 21:55:00
3:55 PM,78.1,26.1,15,29.81,10.0,NW,6.9,17.3,N/A,,Clear,310,2013-06-02 22:55:00
4:55 PM,78.1,30.9,18,29.80,10.0,NW,11.5,16.1,N/A,,Clear,310,2013-06-02 23:55:00
5:55 PM,78.1,34.0,20,29.80,10.0,North,9.2,-,N/A,,Clear,350,2013-06-03 00:55:00
6:55 PM,75.0,37.0,25,29.80,10.0,NNE,13.8,-,N/A,,Clear,30,2013-06-03 01:55:00
7:55 PM,71.1,33.1,25,29.81,10.0,NNE,10.4,-,N/A,,Clear,20,2013-06-03 02:55:00
8:55 PM,66.0,32.0,28,29.83,10.0,North,9.2,-,N/A,,Clear,10,2013-06-03 03:55:00
9:55 PM,63.0,30.9,30,29.85,10.0,NNE,8.1,-,N/A,,Clear,20,2013-06-03 04:55:00
10:55 PM,59.0,35.1,41,29.87,10.0,ENE,4.6,-,N/A,,Clear,70,2013-06-03 05:55:00
11:55 PM,57.9,37.0,46,29.88,10.0,North,9.2,-,N/A,,Clear,360,2013-06-03 06:55:00